Location: McFarlands Corners
(41.4117°N, 81.3382°W)
Time: 04:55:36
(UTC+00:00)

A-11 Canister half - Pass Details

Date: 17 February 2026
Orbit: 1524 x 1683 km, 47.3° (Epoch: 14 March)

Event Time Altitude Azimuth Distance (km) Brightness Sun altitude
Rises 01:46:55 0° 285° (WNW) 4,681 12.7 -31.7°
Reaches altitude 10° 01:50:01 10° 288° (WNW) 3,693 11.8 -32.3°
Maximum altitude 01:59:15 64° 10° (N) 1,664 9.0 -33.9°
Enters shadow 02:00:10 62° 37° (NE) 1,698 9.0 -34.1°
